Content
SEND FEEDBACK

Daily
Averages
Monthly
Summary
United States of America

MIDLAND, MICHIGAN


Home > North America > United States > Michigan
Elevation: 628 feet     Latitude: 43 39N     Longitude: 084 15W

WEATHER
 
SELECT A DAY
Number of Records: 107,274;   Date Range: 1/13/10 - 8/20/14
 
SHARE

PRINT THIS DATA

[ ← Previous Day ]
WEATHER ALMANAC - OCTOBER 12, 2013
[ Next Day → ]
[ °C ]   °F
Weather ElementAverageHighLow
Temperature60.4 °F80.4 °F (4:14 pm)40.3 °F (7:54 am)
Dewpoint49.5 °F58.3 °F (11:53 pm)40.3 °F (7:54 am)
Humidity72 %100 % (6:54 am)36 % (3:33 pm)
Barometer30.06 in30.09 in (1:53 am)29.99 in (4:33 pm)
Wind Speed3.5 mph12.7 mph (4:33 pm)
Wind Gust17.3 mph (4:33 pm)
Weather ElementAverage
Visibility9.6 mi
Wind DirectionESE (97 °)

Weather ElementTotal
Precipitation---
Heating Degree Days4.7 (Base 65)
Growing Degree Days10.4 (Base 50)
Averaged from 71 records on October 12, 2013
WEATHER CONDITIONS BREAKOUT
WIND DIRECTION BREAKOUT
WEATHER BY HOUR - OCTOBER 12, 2013
[ °C ]   °F
Local TimeTemperatureDewpointHumidityBarometerVisibilityWind DirectionWind SpeedGust SpeedPrecipitationEventsConditions
12:34 AM51.1 °F45.3 °F81 %30.08 in10.0 miCalmClear
12:53 AM49.3 °F45.0 °F85 %30.08 in10.0 miCalmClear
1:13 AM48.0 °F44.8 °F89 %30.08 in10.0 miCalmClear
1:33 AM46.9 °F45.7 °F95 %30.08 in10.0 miCalmClear
1:53 AM45.1 °F44.2 °F97 %30.09 in10.0 miCalmClear
2:14 AM43.9 °F43.0 °F97 %30.09 in10.0 miCalmClear
2:33 AM44.6 °F44.4 °F99 %30.09 in10.0 miCalmClear
2:53 AM44.1 °F43.7 °F99 %30.09 in10.0 miCalmClear
3:13 AM43.0 °F42.6 °F99 %30.09 in7.0 miCalmClear
3:33 AM42.8 °F42.6 °F99 %30.09 in10.0 miCalmClear
3:53 AM43.3 °F43.0 °F99 %30.08 in10.0 miENE (70°)3.5 mphClear
4:13 AM42.8 °F42.6 °F99 %30.08 in10.0 miENE (70°)3.5 mphClear
4:33 AM42.4 °F42.3 °F99 %30.09 in10.0 miCalmClear
4:53 AM41.7 °F41.5 °F99 %30.09 in10.0 miCalmClear
5:13 AM42.1 °F41.9 °F99 %30.09 in10.0 miEast (90°)3.5 mphClear
5:33 AM42.1 °F41.9 °F99 %30.09 in10.0 miCalmClear
5:54 AM41.4 °F41.2 °F99 %30.09 in10.0 miCalmClear
6:13 AM41.0 °F40.8 °F99 %30.09 in10.0 miCalmClear
6:33 AM41.0 °F40.6 °F99 %30.09 in10.0 miCalmClear
6:54 AM40.5 °F40.5 °F100 %30.09 in10.0 miCalmClear
7:13 AM40.5 °F40.5 °F100 %30.09 in3.0 miCalmClear
7:33 AM40.5 °F40.5 °F100 %30.09 in4.0 miCalmClear
7:54 AM40.3 °F40.3 °F100 %30.09 in7.0 miCalmClear
8:13 AM40.3 °F40.3 °F100 %30.09 in10.0 miCalmClear
8:33 AM42.4 °F42.3 °F99 %30.09 in10.0 miCalmClear
8:54 AM45.5 °F45.3 °F99 %30.09 in10.0 miCalmClear
9:13 AM49.1 °F48.7 °F99 %30.09 in10.0 miCalmClear
9:33 AM54.1 °F52.2 °F93 %30.09 in10.0 miCalmClear
9:53 AM57.2 °F53.6 °F88 %30.09 in10.0 miSE (130°)4.6 mphClear
10:13 AM59.9 °F54.9 °F83 %30.08 in10.0 miSSE (160°)3.5 mphClear
10:34 AM61.7 °F54.9 °F78 %30.08 in10.0 miSSE (160°)3.5 mphClear
10:53 AM63.1 °F55.4 °F76 %30.08 in10.0 miSSE (150°)4.6 mphClear
11:13 AM64.6 °F54.0 °F68 %30.08 in7.0 miCalmClear
11:34 AM66.6 °F54.0 °F64 %30.07 in10.0 miCalmClear
11:53 AM68.5 °F53.8 °F59 %30.07 in10.0 miSouth (190°)3.5 mphClear
12:13 PM70.2 °F53.4 °F55 %30.07 in10.0 miSouth (190°)4.6 mphClear
12:34 PM72.0 °F52.3 °F50 %30.06 in10.0 miSouth (180°)5.8 mphClear
12:53 PM72.7 °F53.2 °F50 %30.06 in10.0 miSSE (150°)4.6 mphClear
1:13 PM73.6 °F52.5 °F48 %30.05 in10.0 miSE (140°)4.6 mphClear
1:33 PM75.4 °F52.9 °F45 %30.04 in10.0 miSSE (160°)6.9 mphClear
1:53 PM76.5 °F53.2 °F44 %30.03 in10.0 miSSE (150°)6.9 mphClear
2:14 PM77.2 °F53.4 °F44 %30.02 in10.0 miSSE (150°)8.1 mphClear
2:33 PM77.4 °F52.9 °F42 %30.02 in10.0 miSSE (150°)9.2 mphClear
2:53 PM78.1 °F53.1 °F42 %30.02 in10.0 miESE (120°)8.1 mphClear
3:14 PM78.8 °F51.1 °F38 %30.01 in10.0 miSouth (180°)10.4 mphClear
3:33 PM80.1 °F51.1 °F36 %30.01 in10.0 miSouth (170°)8.1 mphClear
3:53 PM79.3 °F50.5 °F36 %30.00 in10.0 miSSE (160°)6.9 mphClear
4:14 PM80.4 °F51.4 °F36 %30.00 in10.0 miSSE (160°)9.2 mphClear
4:33 PM79.7 °F51.1 °F37 %29.99 in7.0 miSouth (190°)12.7 mph17.3 mphClear
4:54 PM78.6 °F51.1 °F38 %29.99 in7.0 miSouth (170°)9.2 mph16.1 mphClear
5:14 PM77.7 °F51.1 °F39 %29.99 in10.0 miSouth (170°)8.1 mphClear
5:33 PM76.3 °F52.3 °F43 %29.99 in10.0 miSouth (180°)6.9 mphClear
5:54 PM75.4 °F52.9 °F45 %29.99 in10.0 miSSE (160°)4.6 mphClear
6:13 PM74.5 °F55.4 °F51 %29.99 in10.0 miSSE (160°)5.8 mphClear
6:34 PM74.5 °F55.0 °F51 %30.00 in10.0 miSouth (170°)5.8 mphScattered Clouds
6:54 PM73.4 °F55.0 °F52 %30.01 in10.0 miSouth (170°)3.5 mphScattered Clouds
7:13 PM71.8 °F53.1 °F52 %30.01 in10.0 miSSE (160°)4.6 mphClear
7:34 PM70.9 °F52.9 °F53 %30.02 in10.0 miSSE (160°)3.5 mphClear
7:53 PM70.0 °F53.1 °F55 %30.02 in10.0 miSSE (150°)4.6 mphClear
8:13 PM69.3 °F53.4 °F57 %30.03 in10.0 miSSE (150°)4.6 mphScattered Clouds
8:34 PM68.9 °F53.8 °F58 %30.02 in10.0 miSSE (160°)4.6 mphScattered Clouds
8:53 PM68.7 °F54.0 °F59 %30.02 in10.0 miSSE (150°)4.6 mphScattered Clouds
9:13 PM68.4 °F54.5 °F61 %30.03 in10.0 miSouth (180°)4.6 mphClear
9:34 PM67.8 °F55.0 °F64 %30.03 in10.0 miSouth (190°)4.6 mphClear
9:53 PM67.8 °F54.5 °F62 %30.03 in10.0 miSouth (180°)5.8 mphClear
10:14 PM66.7 °F53.4 °F62 %30.06 in10.0 miWest (270°)10.4 mph17.3 mphScattered Clouds
10:34 PM66.6 °F56.1 °F69 %30.07 in10.0 miCalmMostly Cloudy
10:53 PM66.2 °F56.8 °F72 %30.07 in10.0 miCalmOvercast
11:14 PM65.7 °F56.7 °F73 %30.06 in10.0 miSSW (210°)3.5 mphOvercast
11:34 PM65.1 °F57.4 °F76 %30.06 in10.0 miWSW (240°)5.8 mphOvercast
11:53 PM64.8 °F58.3 °F79 %30.06 in10.0 miWSW (240°)6.9 mphOvercast
Hourly data recorded from KIKW, located miles away from Midland, Michigan







STORIES FROM OUR PARTNERS